DECAYED

DMSP 5D-2 F13 DEB, 40431 (Decayed)

Orbit data source: Space-Track

DMSP 5D-2 F13 DEB, 40431 was space debris in SSO originally from a launch on Fri, 24 Mar 1995 UTC launched from the Air Force Western Test Range (AFWTR). Debris objects in space refer to the collection of defunct objects orbiting the Earth. Examples of debris include non-operational satellites, rocket bodies, and fragments generated from explosions, collisions, or faulty payload assembly.

Not visible in the next 10 days
Identifier
40431, 1995-015AH
Orbit
Decayed
Last TLE update
8 months ago
Origin
Manufacturer
Unknown
Mission
Decayed spacecraft
Bus & Motor
Unknown
Mass
Unknown
Launch date (UTC)
1995-03-24 (30 years ago)
Launch vehicle
Unknown
Launch site
Air Force Western Test Range (AFWTR)
Object type
Payload
Rocket body
Debris
Shape & HBR
Unknown
Radar Cross Section
Small (<0.1 m²)

Expand to show TLE details & history

TLE from 8 months ago
0 DMSP 5D-2 F13 DEB
1 40431U 95015AH  24245.23999795  .07071798  75677-1  29294-1 0  9991
2 40431  98.6100  41.4225 0027719 299.1170  60.7325 15.90325981502756
Epoch: 2024-09-01T05:45Z
Definitive object data (Epoch: 2024-09-01T05:45:35.822Z)
Latitude
-0.00002°
Longitude
-25.8639°
Altitude
295.502 km
Speed
7.736 km/s
True Right ascension
02h 45m 41s
True Declination
0° 00' 00"
Sunlit
Object was in full shadow at TLE epoch
Visualization observer readout
Visualization observer readout
Orbital elements
Apogee altitude
316.806 km
Perigee altitude
279.794 km
Semi-major axis
6,676.437 km
Eccentricity
0.0027719
Inclination
98.61°
RAAN
41.4225°
Arg. of periapsis
299.117°
True anomaly
61.01006°
Mean anomaly
60.7325°
Eccentric anomaly
60.87123°
Mean motion
3.97856 °/min
BSTAR
0.029294
Orbital period
90.48 mins
Loading maneuver chart data...
Loading SW <> Apogee altitude chart data...

DMSP 5D-2 F13 DEB Visibility forecast

Observer location: undefined°, undefined°

This satellite is decayed
Span
Click to sort rows by Start time (UTC) header in descending order
Start Az.
Max El. time (UTC)
Max El. Az.
Max El.
End time (UTC)
End Az.
|